RH
86 89 91 94 96 97 98 99 100 100 100 100 100 100 100 100 101 100 100 101 100 100 101 101 101 100 100 100 99 98 97 96 96 94 93 92 90 89 88 88 88 87 86 85 84 83 83 83 83 82 81 81 79 78 76 75 74 73 73 72 72 72 71 70 67 62 61 62 62 59 58 58 57 56 57 58 60 63 67 71 77 85 91 95 97
57 63 67 72 77 81 85 88 90 92 94 96 97 97 98 99 99 99 98 98 97 97 97 97 97 96 96 95 95 94 93 92 91 90 89 87 86 86 85 85 84 83 83 82 80 79 78 77 76 75 74 73 71 70 69 68 68 69 70 72 72 73 73 72 69 65 62 63 64 63 61 61 60 57 57 58 58 62 66 67 70 75 82 88 94
38 41 43 46 48 52 56 59 62 66 71 76 79 80 82 84 85 87 89 89 89 90 90 91 92 92 92 92 92 91 90 89 88 86 85 83 82 81 80 78 77 75 73 72 70 69 67 66 65 65 64 63 62 62 63 64 65 66 67 68 69 69 69 69 68 66 64 63 65 66 65 64 64 63 62 62 61 62 65 69 71 73 74 77 82
51 52 54 55 56 57 58 59 60 62 64 67 69 70 73 74 76 79 81 83 84 85 86 86 86 87 87 87 86 85 84 83 82 81 80 78 77 76 74 72 70 68 67 65 65 64 63 63 63 63 63 62 63 64 65 66 66 66 67 67 68 68 67 68 67 66 64 62 62 65 65 65 65 66 65 65 65 64 65 67 71 75 77 76 76
65 67 69 71 73 75 76 77 77 78 78 79 81 83 84 84 84 84 84 85 85 85 85 84 83 83 83 82 82 81 81 80 79 79 77 75 74 72 71 69 68 67 67 67 67 67 68 68 69 69 70 71 73 73 73 73 73 72 72 72 73 74 74 74 74 73 71 68 66 67 68 68 67 67 67 66 66 65 65 65 66 69 73 74 74
74 76 77 78 80 82 85 86 88 89 90 92 94 95 94 94 93 92 91 91 90 89 88 87 85 84 83 82 80 79 78 78 77 76 75 74 73 72 72 72 72 72 72 71 72 72 72 73 74 75 76 77 78 78 79 80 81 82 82 81 82 82 81 81 81 80 79 76 74 73 73 73 72 71 71 69 68 66 64 64 64 63 65 67 67
77 78 80 82 84 86 88 89 91 91 92 92 93 92 92 91 90 89 88 87 87 86 85 84 82 81 79 78 78 77 77 77 77 77 77 76 76 76 76 75 74 73 72 71 70 71 71 72 73 75 76 76 77 77 79 81 82 84 85 85 85 84 83 83 82 81 80 78 77 76 75 75 73 71 71 70 68 66 65 64 63 62 62 62 61
73 75 77 80 82 83 84 84 84 85 85 85 86 86 86 86 86 86 86 85 85 85 84 84 84 83 82 81 80 80 80 80 79 78 77 76 75 73 72 70 69 67 66 66 66 66 67 67 67 67 68 69 70 70 70 71 71 72 73 74 75 75 75 75 75 75 74 73 72 72 71 70 69 68 67 67 65 64 63 63 61 60 59 58 57
60 63 65 68 70 73 76 78 80 82 84 85 87 88 88 89 90 91 91 90 90 89 88 87 86 85 83 82 80 79 77 76 75 73 71 70 68 67 65 63 62 61 61 62 62 62 62 61 61 61 60 60 60 60 60 59 59 59 60 60 61 62 62 62 63 62 62 62 62 62 61 61 61 61 61 61 60 59 59 58 57 56 55 53 53
55 58 62 65 70 74 78 81 83 86 88 90 91 93 93 93 93 92 91 89 87 85 83 81 79 78 76 75 73 72 71 69 68 66 65 63 62 60 58 57 56 57 58 58 58 58 57 57 57 57 57 56 55 55 54 54 54 54 53 54 54 54 54 54 54 54 54 53 52 52 52 52 52 53 53 53 53 53 53 53 52 52 51 50 48
61 65 69 73 76 79 81 84 86 88 90 91 91 90 88 86 84 82 80 78 77 76 74 72 71 69 68 67 66 65 65 63 62 61 60 59 57 54 52 51 51 52 52 52 51 51 51 51 51 52 52 52 51 51 50 50 50 50 50 50 50 50 50 50 50 50 50 49 49 48 48 48 48 50 50 50 50 49 48 47 47 47 46 46 45
64 67 70 72 73 75 76 77 78 78 79 78 77 76 74 73 72 72 72 71 71 70 68 67 66 64 63 62 61 60 59 58 57 56 55 54 52 49 47 47 47 47 46 45 45 44 43 43 43 43 43 43 43 43 42 42 42 42 42 42 42 42 43 43 43 43 44 44 44 45 45 45 46 47 48 48 48 48 47 46 46 46 45 45 44
62 62 63 63 63 64 64 64 65 66 67 68 69 69 70 70 70 70 70 69 68 67 66 65 63 61 60 58 57 56 55 54 52 51 50 49 47 44 43 43 42 41 40 39 38 37 36 35 35 34 34 33 33 32 31 31 30 30 30 30 31 31 31 32 32 33 34 34 35 36 37 38 38 39 41 42 42 43 44 44 45 45 45 45 45
62 61 61 61 62 63 65 67 68 70 71 72 72 72 72 71 70 70 69 67 66 65 63 62 60 58 56 54 53 52 50 49 48 46 45 43 41 39 37 36 34 33 31 30 29 28 27 26 25 24 24 23 22 21 21 20 20 20 20 20 20 20 20 21 21 22 22 23 24 24 25 26 26 28 29 30 30 32 33 34 36 37 38 39 40
69 69 70 71 72 73 74 74 74 74 73 73 72 71 70 69 68 67 65 63 62 59 58 56 54 52 50 49 47 46 45 43 41 38 36 34 32 30 27 25 23 21 20 19 18 17 16 16 15 14 13 13 12 12 12 11 11 11 12 12 12 12 12 12 12 13 13 13 14 14 15 16 16 17 18 18 18 19 20 21 22 22 24 26 28
79 79 79 78 77 76 75 73 72 71 70 69 68 67 65 64 62 61 59 57 54 53 52 50 48 47 45 43 40 38 35 32 29 26 24 23 21 19 16 14 13 11 10 10 10 9 8 8 8 7 7 7 7 7 7 7 7 7 7 7 7 7 7 7 8 8 8 8 9 9 9 9 10 10 10 11 11 11 11 12 12 12 13 14 15
81 79 77 76 74 72 71 70 68 67 66 64 63 61 60 58 56 55 54 53 51 49 47 44 42 39 35 32 29 25 22 19 17 15 14 13 12 10 9 8 7 7 7 7 7 7 7 7 7 7 7 7 7 8 8 7 7 7 7 7 7 7 7 7 8 8 9 9 9 9 9 8 9 9 8 8 8 8 9 9 9 10 10 10 10
76 75 73 72 71 69 68 67 65 64 62 59 57 56 55 53 53 52 50 48 45 41 37 33 29 26 23 20 17 14 12 11 9 9 8 8 8 8 8 8 9 9 9 9 10 9 9 10 9 9 9 9 9 10 10 10 9 9 8 8 8 8 9 9 9 9 10 10 10 10 11 10 11 11 11 10 10 10 10 11 10 10 10 10 9
73 72 71 70 69 67 64 62 60 58 56 54 53 53 52 51 48 45 41 36 32 27 24 20 18 16 13 11 10 8 8 8 8 9 9 9 9 10 10 11 11 11 11 11 11 11 11 11 11 11 11 11 11 12 11 11 10 10 10 9 10 10 9 9 9 9 9 10 10 11 11 11 12 12 12 12 12 12 13 13 13 13 13 12 12
73 72 70 67 64 61 58 56 54 54 53 53 51 49 46 41 36 31 26 22 19 16 14 11 9 8 8 7 8 8 9 10 11 11 12 12 12 12 12 12 12 12 12 12 12 12 13 13 13 14 13 13 13 13 12 11 11 10 10 10 10 10 9 9 9 9 9 9 10 11 11 12 12 12 12 12 12 13 13 13 14 14 14 14 14
70 66 63 59 57 55 54 54 53 52 50 47 42 37 32 27 22 18 15 13 11 9 8 7 7 8 8 9 10 11 12 13 13 14 14 14 13 13 13 13 13 13 13 14 14 14 15 15 16 15 14 14 13 12 12 11 11 11 11 11 11 11 11 11 11 11 11 12 12 13 13 13 14 13 13 13 12 12 13 13 13 14 14 15 15
62 60 58 56 55 55 54 52 49 45 39 33 28 23 19 16 12 10 8 7 7 7 8 9 10 11 12 12 13 14 14 15 15 15 15 15 15 15 15 15 15 15 15 16 16 16 17 18 17 16 14 14 13 13 13 13 13 13 13 13 13 13 13 13 13 13 14 14 15 15 16 16 16 16 16 15 15 15 15 14 14 14 14 15 15
59 58 57 55 54 52 48 43 37 31 25 20 16 13 10 9 8 7 8 8 9 10 12 13 13 14 15 15 15 16 16 16 16 16 16 17 17 17 17 17 17 17 18 18 18 19 20 20 18 16 15 15 15 15 15 15 15 15 14 14 14 14 14 14 14 14 14 15 15 15 16 17 17 17 17 17 17 17 17 17 16 16 16 16 16
57 56 55 52 48 42 36 29 24 19 15 11 9 8 8 8 9 10 11 12 13 14 15 16 16 16 16 17 17 17 18 18 18 18 18 19 20 20 20 20 20 20 21 21 20 21 22 22 19 17 17 18 18 18 17 16 16 15 15 15 14 14 14 14 14 15 15 15 16 16 17 18 18 19 19 19 19 19 19 19 18 18 18 18 18
55 53 48 42 35 28 23 18 14 11 9 8 8 8 9 10 12 14 15 16 16 17 17 17 17 18 18 19 19 19 20 20 20 21 21 22 22 23 23 23 23 24 25 25 24 24 25 25 22 20 20 21 22 21 20 19 18 17 16 17 16 16 16 15 16 16 17 17 18 18 19 20 20 21 22 23 23 22 22 22 20 20 19 18 18
49 42 34 27 21 17 13 10 9 8 8 9 10 11 13 15 17 18 18 17 17 17 17 18 19 20 21 21 22 22 23 23 24 24 25 25 26 26 26 26 28 30 31 30 29 28 29 30 28 24 23 24 25 25 24 23 22 21 20 20 20 19 19 18 19 19 19 20 21 21 22 22 22 23 25 25 25 26 25 24 22 20 19 17 17
35 27 20 15 12 10 8 8 8 9 10 11 13 15 17 18 18 18 18 18 18 19 20 21 23 23 24 24 25 25 26 27 27 28 28 30 31 31 31 32 33 35 36 36 35 33 34 37 37 33 28 27 28 29 30 29 28 27 26 24 24 23 22 22 23 24 24 24 25 24 24 24 25 26 26 26 27 27 27 26 24 24 24 22 21
22 16 12 9 8 9 9 10 10 11 13 15 17 18 18 17 17 18 20 22 23 24 25 26 27 27 28 29 29 29 29 30 31 31 32 34 36 36 36 36 37 38 39 40 41 39 38 41 44 43 39 34 32 32 33 34 34 34 33 32 31 31 30 29 29 29 30 31 32 32 31 30 30 31 31 31 32 33 33 33 33 35 36 34 33
12 10 9 9 10 10 11 12 13 15 17 18 18 17 17 18 20 22 24 26 27 28 29 30 31 31 31 32 33 34 33 33 34 34 35 36 37 38 38 39 40 40 41 42 44 44 43 45 48 50 50 47 43 39 37 37 37 38 39 40 40 39 37 37 37 38 38 39 40 42 42 43 44 44 45 46 48 48 47 47 47 48 48 47 47
9 9 10 11 12 12 13 16 18 19 19 18 16 15 17 21 25 27 29 30 30 30 30 31 33 34 34 34 34 35 36 36 36 36 37 38 38 40 41 42 42 42 43 43 45 47 48 49 51 54 56 56 56 55 51 46 43 41 41 43 47 48 46 44 43 44 45 46 47 48 50 51 52 53 54 55 57 57 55 54 54 54 55 54 55
10 11 12 13 13 15 18 20 21 20 18 17 16 16 18 23 28 31 32 31 31 31 31 32 34 36 37 37 37 37 36 36 36 37 39 39 40 42 45 48 48 47 47 47 47 49 51 53 55 58 59 59 62 65 66 63 59 56 51 48 50 54 55 55 56 58 59 59 60 61 63 66 66 66 66 67 68 67 63 61 61 64 66 67 68
12 13 14 15 17 20 22 22 21 20 18 17 19 22 23 25 28 30 32 33 33 34 35 35 36 37 38 39 39 39 38 38 38 39 39 38 38 40 45 50 54 54 53 52 51 52 54 57 60 62 63 63 65 68 71 72 72 74 73 67 61 60 61 62 65 71 76 79 79 79 82 85 87 88 88 88 88 87 85 85 87 91 91 90 91
14 15 16 19 22 24 24 23 21 19 19 21 26 29 29 29 28 28 29 31 34 36 39 40 39 39 39 40 40 40 41 41 40 40 39 39 38 39 42 47 54 58 60 60 58 55 55 57 61 65 68 69 69 71 74 76 76 78 83 84 81 77 75 73 72 74 78 83 85 87 91 96 98 99 99 99 100 100 100 101 105 108 106 103 101
16 18 20 23 26 26 25 23 20 20 24 28 32 33 33 33 33 32 31 31 31 32 35 38 41 41 40 40 40 41 42 43 42 41 42 42 42 42 41 44 49 54 57 60 62 61 60 59 59 62 67 70 71 73 76 80 81 81 82 86 89 89 88 89 88 87 86 86 85 86 88 91 93 93 94 97 102 105 106 107 109 112 113 110 106
19 22 24 26 28 27 25 22 22 25 30 33 35 35 35 36 38 39 39 37 36 34 34 36 39 41 40 40 40 42 43 45 45 45 45 47 47 47 45 44 45 47 50 53 57 61 64 64 64 64 65 69 72 74 77 81 85 86 86 87 90 92 91 92 94 96 98 98 98 98 97 95 93 91 90 91 95 99 102 104 105 107 110 110 107
22 25 28 30 30 27 24 23 26 30 33 35 35 37 39 40 41 43 44 43 42 40 40 39 39 39 40 40 40 40 42 44 47 48 48 48 49 50 50 49 49 49 50 51 53 57 61 65 69 71 72 72 74 77 79 82 85 89 90 90 91 94 95 95 94 95 97 99 100 102 104 104 104 103 100 99 99 98 98 99 97 96 96 96 95
26 29 32 32 30 26 25 27 31 34 35 36 37 39 40 41 42 43 45 45 44 44 45 45 43 42 41 41 41 42 42 43 46 48 49 49 49 50 51 53 55 57 59 60 61 62 62 64 67 72 77 81 82 83 84 83 83 87 91 92 93 94 96 97 98 98 99 99 99 99 100 100 101 101 101 102 104 106 106 104 102 100 100 99 98
30 33 35 33 29 26 26 29 32 35 37 39 40 41 41 41 42 43 44 46 47 47 48 49 49 48 47 47 46 46 46 46 46 48 50 52 53 54 55 56 59 61 65 68 71 73 73 72 70 70 74 81 86 89 90 87 83 81 84 88 92 95 95 96 98 99 101 102 103 103 103 103 103 101 98 97 98 101 104 104 103 103 104 105 105
33 36 36 33 29 26 27 30 33 35 37 39 41 42 43 43 43 43 44 45 48 50 51 52 53 54 54 54 53 52 52 53 54 55 57 59 62 64 63 63 63 64 66 69 73 77 79 80 78 74 73 76 82 88 92 92 87 81 79 81 87 93 95 96 99 102 104 104 105 105 106 107 109 109 108 104 101 99 99 100 100 99 99 100 101
37 39 37 33 29 28 29 33 35 37 39 41 43 46 47 48 48 49 49 48 49 51 53 55 56 57 58 60 61 61 61 62 65 69 71 71 72 73 72 71 70 70 71 71 73 76 80 83 84 81 77 76 78 82 88 91 90 85 81 80 86 94 99 100 102 105 106 107 107 109 110 111 112 114 115 114 112 110 107 105 104 102 100 100 99
39 40 38 33 30 30 33 36 39 42 45 47 48 49 50 50 51 51 52 52 53 53 54 56 58 60 61 62 64 66 67 69 73 78 80 78 78 79 80 80 78 78 79 79 78 79 83 86 88 87 84 82 81 83 86 89 90 89 89 90 95 103 107 108 108 107 106 106 107 109 111 112 113 115 116 116 116 116 115 113 113 112 111 109 107
39 41 39 34 31 32 34 37 42 47 51 51 51 50 49 48 48 47 47 48 49 51 52 54 57 59 61 62 63 65 68 70 74 79 80 79 78 80 83 85 84 84 85 85 84 83 85 88 91 91 89 87 87 88 87 87 89 92 95 99 104 108 110 109 108 107 105 105 104 103 102 103 103 105 108 108 110 113 116 116 115 114 113 113 113
40 42 42 38 35 34 35 38 43 47 50 51 52 52 52 52 51 50 48 47 46 47 48 51 54 57 60 62 64 65 66 69 72 76 78 78 77 78 81 85 88 87 87 87 86 85 85 87 89 91 90 89 90 90 88 87 89 94 97 98 102 105 104 103 103 103 102 101 100 99 98 99 99 101 104 105 106 108 110 112 115 115 113 112 113
41 43 45 44 41 39 38 39 42 46 50 53 55 56 57 56 54 52 50 48 47 46 46 49 52 56 60 63 65 66 67 68 70 74 76 77 78 78 78 82 88 91 90 88 88 87 86 86 87 87 88 89 91 91 90 88 90 96 100 100 101 102 101 100 100 101 100 100 101 101 100 100 100 102 106 110 111 109 107 106 107 109 110 111 110
42 44 46 47 47 46 45 44 45 46 48 50 52 54 55 54 52 50 49 48 48 47 47 48 52 57 62 66 67 68 68 68 69 72 75 77 79 80 79 80 86 93 94 92 90 90 90 89 87 87 88 90 91 93 93 90 90 95 101 105 104 103 101 101 102 103 104 105 107 105 104 103 103 101 101 105 109 111 111 109 106 103 103 104 104
42 43 44 46 48 49 50 50 50 50 50 51 52 52 52 52 52 52 52 53 54 55 54 54 56 59 64 68 69 69 69 69 69 71 73 76 79 82 82 80 82 91 97 96 93 92 93 92 89 88 90 92 93 94 95 94 92 94 100 105 107 106 105 104 104 105 105 105 106 105 104 103 103 101 100 100 101 103 106 110 110 108 105 102 101
47 47 47 47 47 47 48 49 50 51 51 53 54 55 56 57 58 59 60 61 63 64 64 64 65 66 68 70 71 70 70 70 69 70 73 76 79 83 85 82 80 86 94 97 94 93 94 93 91 89 90 92 93 93 94 96 97 97 100 104 107 107 103 99 97 97 98 99 100 102 102 102 101 101 100 100 100 100 100 103 106 108 108 106 105
56 56 56 56 56 55 54 53 53 52 52 52 52 53 54 56 57 59 61 63 65 67 69 70 71 71 72 73 74 73 73 73 73 73 75 77 80 84 86 84 80 82 90 95 94 91 92 93 91 90 91 93 93 93 94 96 98 99 101 105 106 103 97 94 94 96 99 100 102 102 101 100 100 102 102 102 101 100 100 100 100 101 102 103 103
64 65 66 67 68 69 69 68 68 68 66 65 63 62 60 59 58 58 58 58 60 64 67 70 72 74 75 75 76 76 76 77 77 77 78 81 82 84 85 84 80 79 87 94 94 90 89 90 89 89 91 95 96 95 95 96 97 99 103 106 104 101 97 96 98 100 102 105 107 105 103 102 102 103 103 102 100 100 100 100 100 100 101 100 100
68 69 70 71 72 74 75 76 77 78 78 78 78 77 76 75 72 70 66 63 60 60 61 65 69 73 75 77 77 77 77 78 79 79 80 81 82 82 83 82 78 75 80 90 94 91 89 89 88 87 89 93 95 95 96 96 96 99 103 104 104 103 101 98 98 100 103 106 108 107 104 103 103 103 101 101 102 102 101 101 102 102 102 102 102
67 68 69 70 71 73 74 75 76 78 79 80 82 83 84 85 85 85 83 80 74 68 63 61 62 65 69 74 76 77 78 78 78 79 79 79 79 79 79 79 77 72 73 83 92 93 90 89 89 87 87 91 93 94 95 96 96 97 100 103 104 103 99 97 99 104 107 107 106 105 102 101 102 104 103 104 105 104 103 102 102 101 100 100 101
Wind_Speed
68 68 69 70 70 71 72 73 74 75 76 77 78 79 80 81 82 82 83 84 84 85 86 87 87 88 89 90 91 91 92 93 94 95 95 96 97 97 98 98 98 98 99 99 99 100 100 100 100 101 101 101 101 101 101 102 102 102 102 103 103 103 104 104 104 102 99 100 101 102 103 104 103 103 103 103 103 104 104 103 102 101 100 99 99
66 67 67 69 70 71 72 73 74 75 76 77 78 79 80 81 82 82 83 84 85 86 87 88 88 89 90 91 92 92 93 94 95 96 97 97 98 98 99 99 99 100 100 100 101 101 101 101 101 101 102 102 101 102 102 102 102 101 102 102 102 102 103 104 104 104 101 100 101 102 103 105 105 104 104 105 103 104 105 105 105 105 104 102 100
63 64 65 66 67 69 70 71 72 73 74 75 76 77 78 79 80 81 83 84 85 86 87 88 88 89 90 91 92 93 94 95 96 97 98 98 99 99 100 100 100 101 101 101 101 101 101 101 101 101 101 101 101 101 101 101 101 101 101 102 102 102 103 103 104 103 102 100 99 101 102 103 104 103 104 105 104 104 105 105 105 105 106 105 104
62 63 64 65 66 67 68 69 70 71 73 74 75 76 77 79 80 81 82 84 85 86 87 88 89 90 91 92 93 93 94 95 96 97 98 98 98 99 99 99 100 100 100 100 100 100 100 100 101 101 101 101 101 101 102 102 102 102 102 103 103 104 104 104 104 104 103 101 99 100 101 101 102 102 102 103 104 104 105 105 104 104 105 105 105
63 64 65 66 67 68 69 70 71 73 74 75 76 77 78 79 81 82 83 84 85 87 88 88 89 90 91 92 93 93 94 95 96 97 97 98 98 98 99 99 99 99 99 99 100 100 100 100 101 101 101 101 101 102 102 102 102 103 103 103 104 104 104 104 105 105 104 103 100 100 101 101 102 102 102 102 103 104 104 105 105 104 104 104 104
64 65 66 67 68 69 71 72 73 74 75 76 78 79 80 81 82 83 84 85 86 87 88 89 89 90 91 92 92 93 94 95 96 97 97 98 98 98 98 99 99 99 99 99 100 100 100 101 101 101 101 102 102 102 102 103 103 103 104 104 105 106 106 106 106 106 105 104 103 101 102 102 103 102 102 102 103 104 104 105 106 105 105 105 105
65 66 67 68 69 70 71 73 74 75 76 77 78 80 81 82 83 84 85 86 86 87 88 89 89 90 91 92 92 93 94 95 96 97 97 98 98 98 99 99 99 99 100 100 100 101 101 101 102 102 103 103 104 104 104 105 105 106 106 107 108 108 109 109 109 109 109 108 107 105 105 105 106 105 104 105 105 106 106 106 107 106 106 107 107
66 67 68 69 70 72 73 74 75 76 77 78 79 80 81 82 83 84 85 86 87 87 88 89 90 90 91 92 92 93 94 95 96 97 97 98 98 99 99 99 99 99 100 100 101 101 102 103 104 104 105 105 106 107 107 108 108 109 110 110 111 112 112 113 113 113 113 112 111 110 110 110 110 110 109 109 110 110 110 111 111 109 109 110 109
67 69 70 71 72 73 74 75 76 77 78 79 79 80 81 82 83 84 85 85 86 87 87 88 89 89 90 91 91 92 93 94 95 96 97 98 99 99 99 99 100 100 101 102 103 103 104 105 106 107 108 109 109 110 111 112 112 113 113 114 115 116 116 116 117 117 117 117 116 115 115 115 114 115 114 114 115 115 115 116 116 114 114 114 113
67 69 70 71 72 73 74 75 76 77 78 78 79 80 81 81 82 83 84 84 85 86 86 87 88 88 89 90 91 92 93 95 96 97 99 100 101 101 101 101 101 102 103 104 105 106 107 107 108 109 110 111 112 113 113 114 115 116 116 117 118 118 119 119 119 120 120 120 119 119 119 119 118 119 119 119 119 119 120 120 120 119 119 118 117
67 68 69 70 71 72 73 74 75 76 77 78 79 79 80 81 82 83 83 84 85 86 87 88 89 90 91 92 93 94 95 97 98 100 101 102 103 104 103 102 103 104 106 106 107 107 108 108 109 109 111 112 112 113 114 115 116 117 117 118 118 119 120 120 120 121 121 121 121 121 121 121 121 121 122 122 122 122 123 123 123 123 123 122 122
67 68 69 70 71 72 73 74 75 76 77 78 78 79 80 81 82 83 84 85 87 88 89 90 91 92 93 94 95 96 97 99 100 101 102 103 105 104 103 103 104 106 106 107 108 108 109 109 110 110 111 112 113 114 114 115 116 117 118 119 119 119 120 121 121 121 121 122 122 122 122 122 122 122 123 123 123 123 124 124 125 125 125 125 125
67 68 69 70 71 72 73 74 75 76 77 78 79 80 81 82 83 85 86 87 89 90 91 92 93 93 94 95 95 96 97 98 100 101 102 103 104 104 103 103 105 106 107 107 108 109 110 110 111 111 112 113 114 115 116 117 118 119 119 120 120 121 121 122 122 122 122 122 122 122 122 123 123 123 124 124 125 124 124 125 125 125 126 126 125
67 68 69 70 71 72 73 74 75 76 78 79 80 81 83 84 85 86 87 88 89 90 91 92 93 93 94 94 95 96 97 98 99 100 101 102 103 103 103 104 105 106 107 108 109 110 111 112 112 113 114 115 116 117 118 119 120 121 122 122 122 123 123 123 123 123 123 124 124 124 124 124 125 124 124 124 125 125 125 125 125 126 126 126 126
68 69 70 71 72 73 74 75 76 78 79 80 81 82 83 84 85 86 87 88 89 90 91 91 92 93 93 93 94 95 96 97 99 100 101 102 102 102 103 105 106 107 108 109 110 111 112 113 114 114 115 115 116 117 119 120 121 122 122 122 122 123 123 123 123 123 123 123 124 124 125 125 125 125 124 124 124 124 124 124 124 125 126 126 126
68 69 70 71 73 74 75 76 77 78 79 80 81 82 83 84 85 86 87 88 88 89 90 90 91 92 92 93 93 94 96 97 99 101 102 102 102 102 103 104 104 105 106 106 107 108 109 109 110 110 111 111 112 112 114 116 117 118 117 118 118 119 119 118 118 117 117 117 118 120 121 121 121 121 122 122 121 121 121 121 122 123 123 124 124
69 70 71 72 73 74 75 76 77 78 79 80 81 81 82 83 84 85 86 87 87 88 89 90 91 91 92 93 94 95 96 96 97 99 100 100 100 98 98 98 97 97 97 98 98 99 100 101 102 102 103 104 104 105 107 109 110 110 110 110 111 110 110 109 108 107 108 110 111 113 113 113 113 114 116 116 115 116 116 115 116 118 119 119 120
69 70 71 72 73 74 75 76 76 77 78 79 79 81 82 83 84 85 86 87 87 88 90 91 92 92 93 93 93 93 93 92 92 92 92 92 91 89 88 88 88 88 88 89 90 91 92 93 94 95 96 96 97 97 99 101 102 102 102 102 101 101 101 100 99 99 100 102 103 105 106 106 106 106 108 108 108 109 108 108 109 111 111 112 114
69 70 71 72 72 73 74 74 75 76 78 78 79 80 81 82 84 85 86 87 88 89 90 91 91 91 90 90 88 86 85 83 82 82 83 82 81 80 80 80 81 81 81 82 83 84 84 85 86 87 88 88 88 89 91 93 94 94 94 93 93 93 93 93 92 92 93 95 96 97 98 99 100 101 101 102 103 103 103 102 103 103 104 104 106
69 69 70 70 71 72 73 74 75 76 78 79 79 80 81 83 84 85 86 87 88 88 88 87 86 85 83 81 79 77 75 74 74 74 75 75 74 73 73 74 74 74 74 75 75 75 76 76 77 78 79 79 80 82 84 85 86 86 85 86 86 87 87 86 86 86 88 89 90 91 92 93 95 96 97 98 99 99 99 98 98 98 98 98 98
67 68 69 70 71 73 74 75 76 76 77 79 80 81 82 83 84 84 84 84 83 82 81 79 77 76 74 72 71 69 68 67 68 68 69 69 68 68 67 68 68 67 67 67 67 68 68 69 69 70 71 72 74 75 77 78 78 78 79 80 80 80 79 79 80 81 81 82 84 85 86 88 89 90 92 93 94 94 94 94 93 93 93 92 92
67 69 70 71 72 73 74 75 76 77 78 79 80 80 81 81 80 79 78 77 75 74 72 70 69 68 67 66 65 64 64 63 63 63 64 64 64 63 62 63 62 62 61 61 61 62 62 63 64 64 65 66 67 69 69 70 71 71 72 73 73 72 72 72 73 73 74 75 76 78 79 81 82 83 85 86 87 88 88 89 89 89 89 88 88
69 70 71 72 72 73 74 75 76 77 77 78 78 78 77 75 73 72 70 69 67 66 65 64 64 63 62 62 61 60 60 60 59 59 59 60 60 59 59 58 58 58 57 57 56 57 57 58 58 58 59 60 61 61 62 62 63 64 65 65 64 65 65 65 65 66 66 67 68 70 72 73 74 76 78 79 80 81 81 82 83 83 84 84 83
69 70 71 72 73 73 74 75 75 75 75 74 73 71 69 67 66 65 63 62 61 61 60 60 59 59 59 58 58 57 57 57 56 56 56 55 56 56 55 55 54 54 54 53 53 53 53 53 53 53 54 54 55 55 55 54 54 56 57 57 57 57 57 58 58 59 59 60 61 63 64 65 66 68 69 71 72 73 74 75 75 76 76 77 77
69 70 71 72 73 73 73 73 72 71 69 67 65 64 62 61 60 59 58 57 57 56 56 56 56 55 55 54 54 53 53 53 53 52 52 52 52 52 52 52 52 51 51 51 50 50 50 49 49 49 48 48 49 49 48 48 48 48 49 50 50 50 51 51 51 51 51 52 53 54 56 58 59 60 61 62 64 65 66 66 67 68 69 70 71
69 70 71 71 71 71 70 69 67 65 62 60 59 57 56 55 54 54 54 54 54 53 53 52 52 51 51 50 50 49 49 49 48 48 48 48 49 49 49 49 49 49 48 48 48 48 47 47 46 45 45 44 44 43 43 43 43 43 43 43 43 43 43 44 44 44 44 44 45 45 47 48 50 52 53 55 56 57 59 60 61 62 63 64 64
68 69 69 69 68 67 65 63 60 58 56 54 53 52 51 50 50 51 51 51 50 49 49 48 47 47 47 47 46 45 45 45 44 44 44 45 46 46 46 46 46 46 45 46 46 46 45 45 44 43 42 41 40 40 39 39 39 38 37 37 36 36 36 36 37 37 37 38 38 38 39 40 41 42 44 45 47 49 51 51 52 53 54 54 54
67 67 66 64 62 60 58 57 55 53 51 49 48 48 48 48 47 47 46 46 45 45 44 44 43 43 43 43 43 43 42 41 41 41 41 42 42 43 43 43 43 42 42 42 43 43 43 43 42 41 40 39 38 37 36 36 36 35 33 32 31 30 29 29 30 31 31 32 32 32 33 33 34 36 36 37 38 40 41 41 41 41 42 43 43
63 62 60 58 56 54 53 52 51 49 47 45 44 44 45 45 44 42 41 41 40 40 40 41 41 41 40 40 40 40 40 39 39 39 39 39 39 39 41 41 41 40 39 39 39 40 41 40 40 39 38 38 37 36 35 34 33 32 31 30 29 28 27 26 26 26 26 26 26 26 27 27 28 29 29 30 30 31 32 32 32 32 34 35 36
58 56 54 52 51 50 49 47 46 45 44 43 42 42 41 40 39 38 37 37 37 38 38 38 38 38 38 37 37 36 36 36 35 35 35 36 36 36 38 39 39 38 38 38 37 37 38 38 38 37 37 36 36 36 34 33 32 31 30 29 28 28 27 26 25 24 23 22 22 21 21 21 22 22 22 23 23 24 24 24 25 26 26 28 29
52 50 49 48 47 46 44 43 41 41 42 43 42 41 38 36 34 34 34 35 35 35 35 35 35 34 34 34 34 33 33 33 33 33 33 34 34 34 35 37 37 37 37 37 36 36 36 37 37 36 35 35 34 34 34 33 32 31 30 28 27 26 26 25 24 23 22 21 20 19 18 17 18 18 18 18 19 19 19 19 19 19 20 22 23
47 46 45 44 42 41 40 39 39 40 41 41 40 38 36 34 32 31 31 31 31 31 31 31 31 31 31 31 32 32 32 32 32 33 33 33 33 34 34 35 36 36 36 36 36 35 35 35 35 35 35 34 34 33 33 32 31 30 30 29 27 25 25 24 23 22 22 21 20 19 17 17 17 16 17 16 17 17 17 16 15 16 17 18 19
43 42 41 40 38 36 36 37 38 39 39 38 36 35 34 33 32 30 28 26 25 26 27 28 29 29 29 30 30 31 31 32 32 33 33 33 34 34 34 33 34 34 35 35 35 35 34 34 34 34 33 33 33 32 32 31 31 30 29 29 28 27 25 24 23 22 21 21 20 19 18 17 17 17 16 16 16 16 15 15 14 14 15 16 17
40 39 37 36 34 34 34 36 37 37 35 33 32 31 31 30 30 29 28 26 24 23 23 24 26 27 27 28 29 29 30 31 31 32 33 33 34 34 34 33 33 32 32 33 33 34 34 34 34 33 33 32 32 32 31 31 30 30 28 28 27 26 26 25 24 23 22 21 20 19 19 18 17 17 16 15 15 15 15 14 14 14 14 14 15
37 35 34 33 32 33 34 35 35 33 31 30 29 28 27 26 26 27 28 27 27 26 25 24 25 26 26 26 27 28 28 29 30 31 32 33 33 34 34 34 34 33 33 33 33 33 33 33 33 33 33 32 31 31 30 30 29 29 28 27 26 25 25 24 23 22 22 21 20 19 19 18 17 17 15 14 14 14 14 14 14 14 14 14 14
34 32 31 31 31 32 33 33 31 29 27 26 25 24 24 24 25 25 25 26 26 26 25 25 24 24 25 25 26 27 27 28 29 30 31 32 32 33 33 34 34 34 34 34 34 34 34 34 33 32 32 32 31 30 30 29 29 28 28 27 26 25 24 24 23 22 21 21 20 19 18 18 17 16 15 14 14 13 13 12 12 12 12 12 12
31 30 29 29 30 31 31 29 27 25 24 23 22 22 23 23 23 23 24 24 24 24 25 25 25 25 25 26 26 27 27 28 28 29 30 31 32 32 33 33 33 34 34 34 34 34 34 34 34 33 32 31 30 30 29 29 29 28 28 27 26 25 24 23 23 22 21 20 20 19 18 18 17 16 15 15 14 13 13 12 11 10 10 10 10
28 28 28 29 29 29 28 26 23 22 21 21 21 22 22 22 23 23 22 23 23 24 24 25 26 26 27 27 27 27 28 28 29 29 30 31 32 33 34 34 34 34 34 34 34 34 34 33 33 33 33 32 31 30 29 29 29 29 29 28 26 25 23 22 22 21 21 20 20 19 18 18 17 17 16 15 14 13 13 12 11 11 10 10 10
27 27 27 28 28 27 25 22 21 20 20 20 20 21 21 21 22 22 22 22 23 23 24 25 26 26 27 28 28 28 29 29 30 31 32 32 33 33 34 35 35 35 35 34 34 33 33 33 32 32 32 32 31 30 29 29 29 29 29 28 27 25 23 21 21 20 20 20 19 19 18 18 17 17 16 16 15 14 13 12 12 12 11 10 10
26 26 26 26 26 24 22 20 20 20 20 20 20 20 21 21 22 22 23 23 23 24 24 25 26 26 27 27 28 28 29 30 31 32 33 33 34 34 34 34 35 36 36 35 34 33 33 32 32 32 31 31 30 30 29 28 29 29 29 28 26 24 22 21 20 19 19 19 19 19 18 18 17 17 16 16 15 14 13 12 12 12 12 11 11
25 25 25 24 24 22 21 20 19 20 20 20 21 21 21 21 22 22 23 24 25 25 25 26 26 27 27 27 27 28 28 29 30 31 32 33 33 34 34 34 34 35 36 36 35 34 33 32 32 31 31 30 30 29 29 29 29 28 28 27 25 24 22 20 19 19 19 19 19 19 19 19 18 17 16 16 15 14 14 13 12 12 12 12 12
24 24 23 23 22 21 20 20 20 19 19 20 20 21 21 22 22 23 24 24 26 26 27 27 27 27 27 27 27 27 27 28 28 29 30 31 32 33 34 33 33 33 34 35 35 34 33 32 31 30 30 30 29 29 29 29 28 27 26 25 24 23 22 21 20 20 20 20 20 21 20 20 20 19 18 16 15 14 14 13 13 12 12 12 12
23 23 23 22 21 21 21 21 20 20 20 20 21 21 22 23 24 25 26 26 27 27 28 28 28 28 27 27 27 27 27 27 28 29 29 30 31 32 33 34 33 32 33 34 35 34 32 31 30 30 29 29 28 28 28 28 27 26 25 24 24 23 22 22 21 21 21 21 21 21 21 21 21 20 19 17 16 14 14 13 12 12 12 11 12
23 22 22 22 22 22 22 22 22 22 22 22 23 24 24 26 27 27 28 28 28 28 29 29 29 29 29 28 28 27 27 27 28 28 29 30 31 32 33 34 34 32 32 33 34 33 32 31 30 29 29 28 27 26 26 26 26 25 24 23 23 23 23 22 22 21 21 20 21 21 21 22 22 22 21 19 17 14 13 12 12 11 11 11 11
23 23 22 22 22 22 23 23 24 24 25 25 26 26 27 28 29 29 30 30 30 30 29 29 29 29 29 29 28 28 28 27 28 28 29 30 30 31 32 33 34 33 31 31 32 33 32 31 30 29 29 28 27 25 25 25 24 24 22 22 21 22 22 22 21 21 21 20 20 21 21 21 22 22 23 22 20 18 15 12 11 11 10 10 10
23 23 23 23 23 23 24 24 25 26 26 27 28 29 29 30 30 30 30 30 30 30 30 29 29 29 29 28 28 28 28 27 27 28 28 29 30 31 31 32 33 32 31 30 30 31 31 30 30 29 28 28 27 25 23 23 23 22 21 20 20 20 21 21 21 20 20 20 19 19 19 20 20 21 21 22 22 21 19 17 14 12 10 10 10
23 23 23 23 24 24 24 25 26 26 27 28 28 29 30 30 30 31 30 30 30 30 30 29 29 28 28 28 28 28 27 27 27 27 28 28 29 30 30 31 32 32 30 29 28 29 29 29 29 29 28 27 26 25 23 22 21 21 20 20 20 20 20 20 20 20 19 19 19 19 18 19 19 19 20 20 20 20 20 19 18 16 14 12 11
23 23 23 23 24 24 25 25 26 26 27 28 28 29 29 30 30 30 30 30 29 29 29 29 29 28 28 27 27 27 27 27 27 27 27 27 28 28 29 30 30 31 30 28 27 27 28 28 27 28 28 27 26 25 23 21 20 20 19 19 19 20 20 20 20 19 19 18 18 18 18 18 18 18 18 19 19 19 19 19 18 17 16 15 14
22 23 23 23 23 24 25 25 26 26 27 28 28 29 29 29 29 30 30 30 29 29 29 29 29 29 28 28 27 27 27 27 27 27 27 27 27 27 28 28 29 29 29 27 26 26 26 26 26 27 27 27 26 25 23 22 21 20 19 19 19 19 20 19 18 17 17 18 18 18 18 18 18 18 18 18 19 19 19 19 18 18 17 16 15
22 22 23 23 23 24 25 25 26 26 27 27 28 28 29 29 29 29 29 29 29 29 29 29 29 29 29 28 28 27 27 27 27 27 27 27 27 27 27 27 27 28 28 27 25 24 25 25 25 26 26 26 26 24 23 22 21 20 19 19 19 19 18 17 16 16 17 17 17 17 17 18 18 18 19 19 19 20 20 19 19 19 18 17 17
21 21 22 23 23 24 24 25 26 26 27 27 28 28 29 29 29 29 29 29 29 29 29 29 29 29 29 28 28 28 28 27 27 27 27 27 27 27 26 26 26 27 27 26 24 23 23 24 25 25 25 26 25 24 23 22 21 20 20 19 18 17 16 15 15 16 16 17 17 17 18 18 19 19 20 20 20 20 20 20 20 20 19 19 18
Wind_Direction
270 269 269 269 269 269 269 269 269 269 269 269 269 269 269 269 270 270 270 271 271 271 271 272 272 272 272 272 273 273 273 273 274 274 274 274 275 275 275 275 275 275 275 275 275 276 276 275 275 275 275 275 275 276 276 275 275 275 275 275 275 274 274 274 273 272 271 270 270 270 269 269 268 267 267 267 267 267 267 267 267 266 266 266 265
271 271 271 271 271 271 271 271 271 271 271 272 272 272 272 272 272 273 273 273 273 273 273 273 274 274 274 274 275 275 275 275 275 276 276 276 276 276 276 275 275 275 275 275 275 275 275 275 275 275 275 275 275 275 275 275 275 274 274 274 273 273 273 273 272 272 271 270 270 269 269 269 268 267 267 266 266 266 266 266 266 266 266 265 265
274 274 274 274 274 274 274 274 274 274 274 274 274 274 274 274 274 274 274 274 274 274 274 274 274 275 275 275 275 276 276 276 276 276 276 276 276 276 276 276 276 276 276 276 276 276 275 275 275 275 275 275 275 275 274 274 274 274 273 273 273 272 272 271 271 271 270 269 268 268 268 268 268 267 267 267 266 265 265 266 266 266 266 266 265
277 277 277 276 276 276 276 276 276 276 276 276 276 276 276 275 275 275 275 275 275 275 275 275 275 276 276 276 276 276 276 277 277 277 277 277 276 276 276 276 276 276 276 277 277 277 277 277 277 277 277 276 276 276 275 275 274 274 273 273 273 272 272 271 271 271 270 269 268 267 267 267 267 266 266 266 266 265 265 265 265 265 265 266 265
278 278 278 278 278 278 278 278 277 277 277 277 277 277 277 276 276 276 276 276 276 276 276 276 276 276 276 276 277 277 277 277 277 277 277 277 277 277 277 278 278 278 278 278 278 278 278 278 278 278 278 277 277 276 276 275 275 274 274 273 273 273 272 272 272 271 271 270 269 268 268 267 266 266 266 265 265 265 264 264 264 264 264 264 265
278 278 278 278 278 278 278 278 278 278 278 278 278 277 277 277 277 277 277 277 277 277 277 277 278 278 277 278 278 278 278 278 278 278 278 278 278 279 279 279 279 279 279 279 279 279 278 278 278 278 277 277 276 276 276 275 275 275 274 274 273 273 273 272 272 272 271 271 270 269 268 268 267 267 266 266 265 264 264 264 263 263 263 263 263
279 279 279 279 279 279 279 278 278 278 278 278 278 278 278 278 278 278 278 279 279 279 279 279 279 279 279 279 279 279 279 279 279 279 279 279 279 279 279 279 279 279 279 279 278 278 278 277 277 276 276 276 276 275 275 275 274 274 273 273 273 273 272 272 272 271 271 271 270 269 269 268 268 267 267 266 266 265 265 264 263 262 262 262 262
279 279 279 279 279 279 279 279 279 279 279 279 279 279 279 280 280 280 280 280 280 280 280 280 280 280 280 280 280 280 280 280 280 279 279 279 279 279 279 278 278 279 279 278 278 278 277 277 276 276 276 275 275 275 274 274 274 273 273 272 272 272 272 271 271 271 271 270 270 269 269 268 268 267 267 266 266 265 265 264 264 263 263 262 262
279 280 280 280 280 280 280 280 281 281 281 281 281 281 281 281 281 281 281 281 281 281 281 281 280 280 280 280 280 280 280 280 280 279 279 279 279 279 279 279 279 279 279 278 278 278 277 277 277 277 276 276 275 275 274 274 274 273 273 272 272 272 271 271 271 271 270 270 270 269 269 268 268 267 267 266 266 265 265 265 265 264 263 263 263
281 281 281 281 282 282 282 282 282 282 282 282 282 282 282 282 282 282 282 282 281 281 281 281 281 281 281 281 281 281 281 280 280 280 280 280 279 279 279 279 280 279 279 278 278 278 278 277 277 277 277 276 276 275 275 274 274 274 273 273 272 272 271 271 271 271 270 270 270 269 269 269 268 268 267 267 266 266 265 265 265 265 264 264 264
282 282 282 282 282 282 282 282 282 283 283 283 283 283 283 283 283 282 282 282 282 282 282 282 282 282 282 282 282 282 282 281 281 281 281 281 281 280 280 281 280 280 279 279 278 278 278 277 277 277 277 277 276 276 275 275 275 274 273 273 272 272 272 271 271 271 270 270 270 269 269 268 268 268 267 267 266 266 266 266 266 265 265 265 264
283 283 283 283 283 283 283 283 283 283 283 283 283 283 283 283 283 283 283 283 283 283 283 283 283 283 283 283 283 283 283 282 282 282 282 282 282 282 282 282 281 281 280 280 279 279 278 278 278 277 277 277 277 276 276 275 275 274 274 273 273 272 272 272 271 271 270 270 270 269 269 269 268 267 267 267 266 266 266 266 266 266 265 265 265
283 283 283 283 283 283 283 283 283 283 283 283 283 283 283 283 283 283 283 283 284 284 284 284 284 284 284 284 284 284 284 284 284 284 284 284 284 284 284 283 283 282 282 282 281 280 280 279 279 278 278 277 277 277 276 275 275 274 274 273 273 273 272 272 271 271 271 270 270 269 269 268 268 267 267 267 266 266 266 266 266 265 265 265 265
283 283 283 283 284 284 284 284 284 284 284 284 284 284 284 284 284 284 285 285 285 285 285 285 285 285 285 285 285 286 286 286 286 286 285 285 285 285 285 285 284 284 283 283 282 282 281 281 280 279 279 278 277 277 276 275 275 274 274 273 273 273 272 272 272 271 271 270 270 269 268 268 267 267 267 267 266 266 266 265 265 265 265 264 264
284 284 284 284 284 284 284 284 284 284 284 285 285 285 285 286 286 286 286 286 286 286 286 286 287 287 287 287 287 288 287 287 287 287 287 286 286 286 286 286 285 285 284 284 283 283 282 281 281 280 279 278 278 277 276 275 274 274 274 273 273 272 272 272 272 271 271 271 270 269 268 268 267 267 266 266 266 265 265 265 264 264 264 263 263
284 284 284 284 284 284 285 285 285 286 286 286 286 286 287 287 287 287 287 288 288 288 288 288 288 289 289 289 289 289 289 288 288 288 287 287 287 287 287 287 286 286 285 285 285 284 283 283 282 281 280 279 278 278 277 276 275 275 274 273 273 273 273 272 272 272 272 271 271 270 269 269 268 268 267 266 266 265 265 265 264 264 263 263 263
284 284 285 285 285 286 286 287 287 287 287 287 288 288 288 289 289 289 290 290 290 290 290 290 290 290 290 290 290 290 290 289 289 289 289 289 289 289 288 288 288 287 287 287 286 286 285 284 283 282 282 281 280 279 278 277 277 276 275 275 274 274 274 273 273 273 273 272 271 271 270 270 269 269 268 267 266 265 265 265 264 264 264 264 263
286 286 287 287 287 288 288 288 289 289 290 290 290 291 291 291 291 291 291 292 292 291 291 291 291 291 291 291 291 291 291 290 290 290 290 290 290 290 290 289 289 289 288 288 287 287 286 285 285 284 283 282 281 281 280 279 278 278 277 277 276 276 275 274 273 273 272 272 272 271 271 270 270 269 268 268 267 266 265 265 264 264 264 264 264
288 288 288 289 289 290 290 291 291 292 292 292 292 292 293 293 293 292 292 292 292 292 292 292 292 292 292 292 291 291 291 291 291 291 291 291 291 291 291 291 290 290 290 289 289 288 288 287 286 285 285 284 283 282 281 280 280 280 279 279 277 276 275 274 274 273 272 271 271 271 271 271 270 269 269 268 267 266 265 265 264 264 264 264 264
290 290 291 291 292 292 292 293 293 293 293 293 293 293 293 293 293 293 293 293 292 292 292 292 292 292 292 292 292 292 292 292 292 292 292 292 293 293 293 293 293 293 293 292 292 291 290 289 289 288 287 286 285 283 282 282 282 281 280 279 277 276 276 275 274 273 272 271 271 270 270 270 270 269 269 268 268 267 267 266 265 265 265 264 264
292 292 293 293 293 294 294 294 294 294 294 294 294 294 294 293 293 293 293 293 293 293 293 293 293 293 293 293 293 293 293 293 293 294 294 294 295 295 295 296 296 297 297 296 296 295 294 293 292 291 290 288 287 286 285 284 284 283 281 279 278 278 277 276 275 273 272 271 271 270 270 269 269 269 269 269 269 269 268 268 267 266 266 265 265
294 294 294 294 294 294 295 295 295 295 295 295 294 294 294 294 294 294 294 294 295 295 295 295 295 295 295 295 295 295 295 295 295 296 296 297 297 298 298 299 300 301 302 301 301 300 299 297 296 295 293 292 290 289 288 287 286 285 283 282 281 280 278 277 276 274 273 272 271 271 270 270 269 269 269 269 269 269 269 268 268 267 267 266 265
295 295 295 295 295 295 296 296 295 296 295 295 296 296 296 296 296 296 296 296 296 296 296 297 297 297 297 297 297 297 297 297 298 298 299 300 301 302 303 304 305 306 306 306 306 304 303 302 300 299 297 296 294 293 292 291 289 288 286 285 283 282 281 279 277 276 274 273 272 271 270 270 270 269 269 269 269 269 268 268 268 268 267 267 266
296 296 296 296 296 296 296 296 296 296 297 297 297 297 298 298 298 297 297 297 298 298 299 299 299 299 299 299 299 299 300 300 300 301 302 303 304 305 306 307 308 309 310 311 311 310 308 307 305 304 302 301 300 299 297 295 293 291 289 288 286 284 283 281 279 278 276 274 273 272 271 270 269 269 269 269 269 269 269 269 269 268 268 268 267
297 297 297 297 297 297 297 297 297 298 298 299 299 299 299 299 299 299 299 300 300 300 300 300 300 300 301 301 301 302 303 303 304 304 305 306 306 307 308 309 311 313 315 316 316 315 313 312 311 310 309 308 307 306 304 301 298 295 293 291 290 288 286 284 282 280 279 277 275 274 273 272 271 270 269 269 269 269 269 268 268 268 267 267 267
297 297 297 297 297 297 298 298 299 299 299 300 300 300 300 301 301 301 301 301 301 302 302 302 302 303 303 304 304 305 306 306 307 308 308 309 309 310 311 313 315 317 318 320 320 320 319 318 317 317 316 315 314 313 311 309 306 304 301 299 297 295 292 289 287 285 283 281 279 277 277 276 275 273 272 271 270 270 269 269 269 269 269 269 269
298 298 298 298 298 299 299 300 300 300 300 301 301 301 301 302 302 303 303 303 303 303 304 304 305 306 307 307 308 308 309 310 310 311 311 312 313 313 314 315 317 319 321 323 324 324 324 323 323 323 323 321 320 319 318 317 316 315 313 310 308 304 300 296 293 290 288 286 283 282 280 279 278 276 274 274 273 272 272 272 273 273 274 274 273
298 299 299 300 300 301 301 301 301 301 302 302 303 303 303 303 304 304 304 305 306 306 307 308 308 308 309 310 310 310 311 312 313 313 313 314 315 315 316 317 318 321 323 325 326 327 327 327 328 328 328 327 326 325 324 324 323 323 322 320 318 315 310 305 301 298 295 292 290 288 286 284 282 280 278 277 276 275 276 276 276 276 275 275 274
300 300 301 301 301 302 302 302 303 303 303 303 304 304 305 305 305 305 306 307 308 308 309 309 309 310 310 311 312 313 314 314 315 314 314 315 316 317 317 318 320 322 324 326 328 329 330 331 332 333 333 333 332 332 331 330 329 328 328 327 325 323 320 317 313 310 307 304 302 299 296 294 291 289 287 285 282 281 280 279 278 276 275 274 273
301 301 302 302 302 302 303 303 304 304 304 305 305 305 306 307 307 308 308 309 309 310 310 310 311 312 313 313 314 315 317 317 318 318 319 320 321 322 322 322 324 325 326 328 330 331 332 333 335 336 337 337 337 337 338 338 337 334 333 333 331 329 328 327 325 322 320 318 316 313 309 305 301 298 295 292 289 286 285 283 281 278 276 274 273
302 302 302 303 303 304 304 304 305 306 306 307 307 307 307 307 308 310 311 312 312 312 312 313 315 317 318 319 320 321 322 323 323 324 325 326 327 327 328 328 329 330 331 331 332 333 334 335 337 339 340 341 340 341 342 343 343 342 341 340 339 335 333 332 331 329 328 327 325 323 319 314 310 306 302 299 295 293 292 290 287 283 279 276 274
302 303 303 304 304 304 305 305 307 307 308 309 310 310 310 309 310 312 313 315 316 317 318 319 321 322 324 325 325 326 327 328 329 330 331 332 332 332 333 333 333 334 335 335 336 336 336 336 337 339 341 343 344 344 344 345 346 347 346 346 347 345 342 339 337 334 332 331 330 328 326 322 317 313 310 307 304 302 300 298 293 287 282 279 277
304 304 305 305 305 305 306 307 308 309 310 311 311 312 313 314 315 316 317 318 319 321 322 324 325 326 328 328 329 330 331 332 334 334 335 336 337 337 337 337 337 337 337 338 339 340 340 339 339 340 341 343 344 345 347 347 348 349 349 349 349 350 350 349 346 343 340 337 334 332 330 326 322 319 318 316 314 311 308 305 300 294 289 285 283
305 306 306 306 306 307 308 309 310 311 311 312 313 314 316 318 320 321 322 323 324 326 327 328 329 330 332 333 333 334 336 336 337 338 339 340 341 341 342 342 342 342 341 341 341 342 343 343 343 343 343 344 344 345 346 348 349 350 351 351 350 350 351 352 352 351 350 348 345 342 338 334 330 327 325 321 317 312 309 305 302 297 293 289 285
307 306 306 307 308 309 310 311 311 312 312 313 314 316 319 321 322 324 325 327 328 330 332 334 334 335 336 337 337 338 339 340 341 341 342 343 343 344 345 346 347 348 348 347 346 345 345 345 346 346 346 346 346 346 346 347 349 349 350 351 352 351 350 351 351 351 351 351 351 350 348 345 343 341 338 333 325 318 313 308 304 299 294 289 286
307 307 308 309 310 311 311 312 312 312 313 314 316 318 321 322 324 325 326 327 329 331 333 334 336 337 338 339 339 340 341 342 344 344 344 344 345 345 346 346 348 349 350 351 351 350 349 347 347 346 347 348 349 349 349 349 349 350 350 350 350 351 351 350 350 351 350 350 350 350 349 348 347 346 345 343 338 334 330 324 318 311 304 299 294
308 309 309 310 311 311 312 312 313 314 315 317 319 320 322 323 324 325 326 327 328 330 332 333 335 336 338 338 339 340 341 342 344 345 345 346 346 347 347 347 347 347 348 349 350 350 350 350 349 348 347 346 347 349 350 350 351 351 350 349 348 349 349 349 349 350 350 350 349 348 347 347 345 344 344 343 341 339 337 333 329 324 317 312 308
310 310 310 310 311 311 312 312 313 315 317 319 320 322 323 324 325 326 327 327 328 329 331 332 334 335 336 337 338 339 340 341 343 344 346 347 347 348 348 348 347 346 346 346 346 348 349 350 350 349 348 347 345 346 347 348 349 349 350 349 348 346 347 347 348 349 349 349 349 348 347 346 344 342 342 341 340 338 336 332 328 325 320 316 312
311 310 310 311 311 312 312 313 314 315 317 319 320 322 323 324 324 325 326 327 328 329 330 331 332 333 334 335 337 338 339 341 342 343 345 346 346 347 348 348 348 347 347 346 346 346 346 348 349 350 350 349 347 346 345 346 346 347 347 347 347 346 345 346 347 348 349 349 348 347 346 345 343 341 339 338 338 336 334 330 327 324 321 318 313
312 311 311 312 312 312 313 313 314 316 318 320 321 322 323 324 324 325 326 326 327 328 328 329 330 331 332 333 335 336 337 339 341 342 343 344 344 344 345 346 347 347 348 347 347 347 346 347 348 349 350 350 350 348 347 346 345 345 346 346 347 347 347 347 347 348 349 349 347 347 345 344 342 340 337 335 334 332 331 328 324 320 318 316 313
313 312 312 312 312 311 311 312 314 316 318 319 320 322 324 325 326 326 327 327 327 327 328 328 328 329 330 331 332 333 334 335 338 339 341 342 343 343 343 344 345 346 347 348 348 348 348 347 347 348 349 350 350 350 349 348 347 347 348 350 352 352 352 352 351 350 350 349 348 346 344 341 339 337 334 332 331 329 327 325 322 319 316 313 310
313 313 312 312 311 310 310 310 312 313 315 317 319 321 323 325 326 327 327 327 327 327 327 327 327 327 327 328 329 330 330 331 333 336 338 340 342 343 344 344 344 345 346 347 348 348 348 348 348 348 350 350 350 350 350 350 350 352 354 356 357 358 358 358 355 353 352 350 349 348 346 344 340 336 332 328 326 324 323 322 321 320 318 316 314
314 313 313 312 311 310 310 310 310 311 311 313 314 316 319 320 322 323 324 324 325 325 325 325 325 325 325 325 326 327 327 328 330 332 335 337 340 342 344 344 344 344 345 346 347 348 349 349 349 350 350 351 351 351 351 352 354 356 358 360 1 1 1 360 359 357 357 358 358 358 358 356 354 350 344 336 327 321 318 318 319 320 320 320 319
314 313 313 312 311 310 309 309 309 308 309 309 310 311 313 315 316 318 319 319 320 320 320 321 321 322 322 322 323 324 325 326 327 329 332 335 338 340 342 344 344 344 344 345 347 348 349 350 351 351 352 352 352 352 353 355 357 359 1 3 4 5 5 6 6 6 6 7 8 8 7 8 8 7 5 0 352 340 328 320 318 319 321 323 323
314 313 313 312 311 310 309 308 307 306 306 306 306 307 308 310 311 313 314 315 316 316 317 317 318 318 319 320 320 322 323 325 326 328 330 333 336 339 341 342 344 344 344 344 346 347 348 349 351 352 352 353 353 352 353 356 359 1 3 6 8 9 11 11 11 10 11 11 11 12 12 13 14 15 17 17 16 11 3 350 337 329 326 326 327
316 315 314 313 312 310 309 308 307 306 306 306 306 306 307 308 309 310 311 312 313 314 314 315 315 316 317 317 318 320 322 324 325 327 329 332 335 337 339 340 342 344 344 344 345 347 348 349 350 352 353 353 354 353 353 355 359 2 4 7 9 10 11 10 10 10 11 11 12 13 14 15 16 18 21 23 25 26 25 21 15 5 354 344 337
318 318 317 316 315 313 312 311 310 309 308 308 307 307 307 308 308 309 310 311 312 312 313 314 314 315 316 316 317 318 320 322 324 326 329 331 333 336 337 339 340 342 343 343 344 347 348 349 350 352 352 353 354 354 354 355 357 0 3 5 6 6 7 7 9 11 12 13 14 16 16 18 19 21 22 24 26 28 29 30 30 28 24 18 10
321 321 321 320 319 318 317 316 314 313 312 311 310 309 309 309 309 309 310 310 310 311 311 312 313 314 315 316 316 318 319 321 323 325 327 329 332 334 336 337 339 340 342 342 343 345 348 350 351 352 353 353 354 355 355 355 356 357 359 1 1 1 4 6 9 12 15 16 17 19 20 20 21 23 24 26 27 27 28 29 29 29 28 27 24
325 325 324 324 323 322 321 320 319 317 316 314 314 313 312 311 311 311 310 310 310 310 310 310 311 312 313 314 315 316 318 320 321 323 325 328 330 332 334 335 337 339 340 341 342 344 347 350 351 353 354 354 354 355 356 356 356 356 356 356 357 359 2 6 10 14 17 18 19 20 20 21 22 24 25 26 27 27 28 27 27 25 24 23 21
328 328 328 328 327 327 326 325 323 322 320 319 318 316 315 314 313 312 312 311 311 311 310 310 310 310 311 312 313 314 316 318 319 321 323 325 328 330 332 333 335 337 339 340 341 343 346 350 352 353 354 354 355 356 357 357 357 357 356 356 356 358 1 6 11 15 17 18 19 20 21 22 24 25 27 28 29 29 28 27 26 25 23 20 18
334 334 334 333 333 332 331 330 328 327 325 324 322 321 319 318 316 315 313 312 312 312 312 311 311 310 310 310 311 312 313 315 317 318 321 323 325 327 329 332 333 335 337 339 340 342 346 349 351 353 354 355 356 357 358 358 359 359 359 358 359 360 3 8 14 16 18 18 19 21 23 25 28 30 31 32 32 31 30 28 26 24 22 20 18